sat.trackr.live / text

‹ back to catalog

STARLINK-31339

NORAD 58981 · 2024-031S

PAYLOAD ACTIVE UNKNOWN

§ Identity

Operator
Country
US
Launch date
2024-02-15
Launch site
AFWTR
Launch vehicle
Mass (kg)
RCS (m²)

Purposes: comms

External: N2YO · Heavens-Above · Gunter

§ Orbital elements

Epoch: 2026-05-24T16:28:12.327456Z

Period
93.85 min
Inclination
53.1633°
Eccentricity
0.0001405
Mean motion
15.34391025 rev/d
Perigee alt
461.8 km
Apogee alt
463.7 km
Semi-major
6,840.9 km
B*
2.8571e-5
RAAN
303.3377°
Arg perigee
97.3493°
Mean anomaly
262.7670°
Rev number
12,815

§ Raw data

STARLINK-313391 58981U 24031S   26144.68625379  .00000589  00000+0  28571-4 0  99922 58981  53.1633 303.3377 0001405  97.3493 262.7670 15.34391025128155

JSON: /api/v1/satellites/58981 · /tle

For live sub-satellite position, see the globe view (requires WebGL).

§ Visibility from observer

Set your observer location to see the next 7 days of passes ≥ 10°. The values pass through the URL so the page stays shareable.

No JS? Fill the form by hand. The geolocation button needs JavaScript.